Wetbulb
76.55 77.43 78.24 73.83 65.66 64.97 60.31 60.99 64.47 61.61 62.17 65.00 64.92 62.43 63.35 66.32 64.60 60.80 70.09 70.58 71.27 72.28 74.35 75.42 77.04 76.08 75.83 76.53 77.02 77.11 77.12 76.55 76.06 76.03 76.93 76.85 76.77 76.86 76.94 76.95 77.12 77.05 77.22 77.50 77.14 77.19 77.07 77.01 76.70
76.91 75.65 75.57 72.42 64.19 59.01 59.62 63.89 61.53 63.48 65.18 65.69 65.96 65.80 65.73 64.98 67.26 66.74 68.12 70.18 72.52 73.59 74.86 75.31 77.06 76.63 76.38 76.21 76.70 76.65 76.63 76.74 76.50 76.33 76.62 76.95 77.08 77.03 76.92 76.93 77.06 77.40 77.18 77.31 76.84 76.81 76.70 76.67 76.75
75.88 76.19 71.29 67.49 65.31 59.49 60.02 64.35 65.09 65.54 64.99 67.40 66.32 67.10 67.07 64.72 66.60 67.15 69.43 71.17 73.65 73.78 75.17 76.55 77.04 76.67 76.73 76.75 76.80 77.01 76.63 76.28 76.61 76.05 76.05 76.86 76.96 77.20 77.27 77.05 76.92 77.19 77.19 77.37 76.50 76.53 76.20 76.59 76.76
74.36 74.08 71.82 65.48 60.65 63.47 64.28 66.18 66.50 65.71 65.37 66.82 68.21 64.83 68.06 70.03 67.27 69.67 70.40 72.40 73.24 74.05 75.56 76.22 77.17 76.59 76.49 76.42 76.61 76.86 76.61 76.11 76.36 76.38 76.47 76.63 76.84 77.10 77.24 77.42 77.10 77.17 76.67 76.64 76.28 76.13 76.55 76.78 76.52
75.59 71.82 64.91 62.69 62.06 64.51 66.57 67.80 68.12 66.24 66.31 66.03 67.35 64.34 64.30 68.47 71.03 70.81 70.99 72.36 73.00 73.68 75.53 76.80 77.10 76.68 76.95 76.72 76.66 76.73 76.69 76.42 76.33 76.58 76.11 77.01 76.86 77.33 77.38 77.14 76.89 77.37 77.01 77.01 77.01 76.67 76.69 76.54 76.46
69.43 69.26 62.99 59.62 61.79 64.88 66.90 68.54 67.83 66.90 67.11 66.84 66.45 65.47 65.58 70.97 70.08 70.63 71.57 72.86 73.81 74.65 75.85 76.68 76.88 76.88 76.24 76.40 76.59 76.72 76.95 76.80 76.44 76.52 76.61 77.17 76.81 76.74 77.04 77.20 77.37 77.00 76.68 77.28 76.70 76.53 76.14 76.03 76.08
67.44 66.82 61.81 61.77 61.60 63.32 65.91 69.27 66.74 66.75 66.78 66.42 68.70 63.60 66.56 68.29 70.65 71.22 72.59 74.36 74.98 75.30 75.70 75.74 76.87 77.17 75.91 75.74 75.58 76.55 76.65 76.77 76.47 76.36 76.55 77.01 76.88 76.70 76.69 76.43 76.59 76.81 77.03 76.62 76.43 76.18 75.58 75.56 75.20
69.47 67.61 61.81 62.43 61.06 61.98 67.43 67.83 68.68 67.65 66.55 69.95 69.30 62.97 61.98 68.44 71.11 72.42 72.86 74.02 74.58 75.01 75.40 75.64 76.11 77.31 77.51 76.75 75.78 76.73 76.94 76.71 76.44 76.32 76.69 76.63 75.85 76.38 76.53 76.32 75.82 76.28 76.92 76.89 76.31 75.73 75.47 75.19 75.92
70.22 64.83 60.81 61.41 61.96 64.01 68.19 66.60 69.15 70.47 67.71 68.69 68.87 67.05 67.86 70.79 70.75 71.34 72.55 73.08 73.87 74.23 74.45 75.38 75.75 76.72 77.39 77.72 77.62 77.41 77.22 76.76 76.46 76.63 76.85 75.80 76.04 75.86 74.68 74.14 74.31 74.78 76.44 76.86 76.23 75.92 76.02 76.36 76.28
67.09 64.42 62.25 65.42 66.22 65.53 67.60 67.40 67.74 67.50 67.22 67.18 68.26 69.25 70.15 70.57 71.02 70.19 70.29 71.31 72.38 72.93 73.17 74.74 75.02 75.71 77.00 76.86 78.08 78.40 78.00 77.90 77.47 76.35 76.78 77.13 76.95 74.92 74.67 73.69 73.20 74.95 75.79 76.84 76.31 76.42 75.69 75.63 76.15
65.59 62.64 64.91 65.76 67.66 67.99 67.49 67.36 68.99 67.34 65.51 68.00 67.33 68.03 68.97 69.04 69.80 69.70 69.01 72.05 71.92 72.98 73.06 74.49 76.01 76.08 76.22 76.49 77.14 76.35 76.15 76.58 77.14 77.20 77.47 76.89 77.21 75.45 75.05 74.99 75.38 76.67 76.46 77.27 76.55 73.64 74.31 74.59 76.45
63.13 64.70 65.37 66.38 67.68 67.84 67.04 68.88 66.66 67.61 68.18 70.10 70.77 69.93 69.02 68.51 69.04 68.83 70.32 71.41 71.66 72.62 73.07 74.48 75.41 76.51 76.38 76.57 76.27 76.59 75.74 76.12 76.00 76.61 76.86 76.25 75.31 75.19 74.63 74.27 74.74 75.82 77.98 76.61 75.51 74.29 74.07 73.18 76.01
64.08 64.78 65.89 66.83 67.25 68.46 68.76 67.14 67.34 67.38 69.54 70.96 70.76 68.29 68.48 68.24 69.14 69.42 71.43 71.58 71.45 72.11 73.24 74.22 75.19 76.04 76.41 76.94 76.58 76.29 76.06 76.26 76.31 76.18 76.51 76.64 75.57 76.17 76.47 74.77 76.47 76.13 76.08 75.83 75.47 74.65 74.28 74.39 74.42
65.74 65.23 65.84 67.82 67.09 68.54 67.09 66.96 67.60 67.67 69.81 69.83 69.76 67.89 67.06 66.95 69.40 70.26 70.61 70.22 70.86 72.04 72.79 73.94 74.56 76.13 76.42 76.99 77.47 77.91 77.52 77.08 76.91 77.27 77.22 77.15 79.71 77.84 76.33 76.31 74.98 75.06 75.78 75.51 75.90 75.85 75.54 74.21 73.91
65.62 64.07 67.19 67.25 67.24 66.99 68.72 64.07 64.87 68.43 69.45 68.48 67.69 67.74 67.94 67.22 70.06 69.86 70.15 69.96 70.22 71.89 72.15 73.51 74.39 75.86 76.05 76.45 77.12 77.63 77.26 77.35 78.60 78.62 77.92 77.90 77.94 77.84 77.65 77.75 76.20 75.07 75.93 76.30 75.97 75.89 75.88 74.77 74.63
63.24 64.47 61.82 66.49 67.40 67.31 66.24 60.78 65.90 68.69 68.38 67.25 66.81 67.85 68.71 69.42 69.50 70.18 70.99 69.97 70.20 70.10 71.59 72.86 73.25 74.12 75.35 76.34 76.56 77.32 77.69 77.92 78.18 78.06 77.53 78.26 77.51 77.73 77.81 75.49 76.85 76.80 76.25 75.80 75.25 76.86 75.19 74.78 74.71
60.32 57.27 59.14 62.53 67.11 65.89 65.28 62.70 66.18 68.38 67.67 67.00 66.76 68.36 68.70 69.01 69.13 71.09 71.37 68.82 69.66 70.93 72.43 72.95 74.15 74.22 75.48 76.90 76.96 77.25 78.07 78.71 79.89 79.48 77.60 78.50 78.16 78.21 78.17 76.04 77.47 77.27 75.18 74.37 74.42 76.49 76.69 75.43 74.30
55.05 55.59 57.55 59.73 64.43 65.43 64.08 64.22 66.03 67.27 66.87 66.52 68.05 68.28 68.58 67.75 68.52 70.45 69.59 71.75 69.74 70.22 71.92 73.68 74.50 75.66 76.26 76.49 77.08 76.99 77.48 77.46 78.58 78.96 78.44 79.02 78.69 77.90 77.71 77.01 77.11 76.55 77.48 74.53 74.54 75.55 76.48 75.88 74.09
59.37 57.74 56.43 58.81 61.98 63.57 63.87 64.45 64.81 66.75 66.49 66.01 67.12 67.63 68.24 68.37 70.00 68.53 69.79 72.79 71.35 70.09 70.55 72.24 73.15 75.66 76.03 75.28 74.46 74.69 74.25 75.34 75.67 77.49 76.64 78.77 78.66 78.70 78.29 78.26 76.59 76.31 74.42 75.89 75.57 74.65 74.61 75.84 75.47
57.55 57.15 56.77 59.07 61.72 64.24 63.66 62.97 65.78 66.37 66.35 66.20 66.35 67.25 67.83 68.33 69.08 70.34 71.37 72.60 72.13 70.51 70.56 71.03 73.26 75.63 76.22 75.46 75.51 75.24 76.19 75.03 75.07 77.04 78.48 78.04 78.70 79.11 78.76 78.62 77.43 76.85 76.29 75.66 74.11 75.25 74.75 74.94 74.74
56.55 55.19 57.08 58.45 62.29 64.24 63.66 61.90 63.90 66.54 67.27 67.33 67.11 67.70 68.42 68.63 68.12 70.39 71.42 72.24 72.65 71.30 71.87 71.50 74.45 75.78 76.51 76.45 76.00 76.63 76.23 75.72 73.76 73.85 77.62 76.75 77.88 79.19 78.82 78.60 78.49 77.95 76.98 77.40 75.20 75.15 74.91 70.95 70.59
54.01 56.37 57.52 60.32 60.34 56.90 63.51 55.92 62.92 65.21 65.54 66.27 66.85 67.01 67.45 68.56 69.58 70.38 70.91 71.50 71.98 72.75 74.00 74.21 74.55 75.81 76.16 77.01 76.23 76.19 73.91 72.44 74.14 74.97 76.75 77.21 78.01 77.97 79.09 79.07 78.48 77.87 79.16 77.20 76.87 75.59 76.15 73.91 69.50
56.38 58.50 58.20 60.28 58.93 58.43 60.41 56.89 61.69 65.29 63.79 65.67 66.78 67.15 67.40 68.42 69.14 69.59 70.44 71.32 72.04 72.53 72.89 74.55 75.49 75.81 76.26 76.29 76.75 75.34 75.04 74.11 74.92 75.96 76.43 77.98 78.54 78.11 76.86 78.54 78.47 77.73 75.51 75.84 77.03 76.14 75.22 76.83 73.89
60.11 59.78 60.38 60.29 58.16 54.12 56.95 56.77 58.20 61.98 64.15 65.81 67.23 67.77 67.93 67.98 68.72 69.66 71.03 71.54 71.77 72.40 71.41 72.17 74.06 74.71 75.94 76.06 75.87 76.16 75.66 75.19 74.08 74.18 73.95 75.12 76.42 78.26 77.72 78.88 78.63 77.13 73.55 75.69 77.46 76.99 74.39 73.76 71.89
59.77 58.51 52.42 51.00 52.40 50.93 57.35 56.98 57.62 64.01 65.07 66.46 66.51 67.31 68.51 68.73 68.63 69.01 69.39 69.95 71.03 71.57 72.01 72.16 72.30 73.45 74.90 74.71 74.83 75.17 75.71 75.89 75.68 75.14 73.63 74.12 74.18 78.36 77.44 78.79 77.95 77.04 77.17 76.42 76.11 75.46 71.59 73.74 73.46
57.83 56.21 50.91 45.75 48.73 50.76 57.77 53.05 58.79 63.95 66.43 67.47 67.97 67.95 68.81 69.09 69.36 69.14 69.75 70.04 70.26 70.81 71.74 72.06 72.23 73.17 73.75 74.52 74.98 75.92 76.37 74.92 75.09 74.86 74.34 73.94 72.77 73.92 78.41 78.26 77.95 76.56 74.72 74.01 70.67 70.84 74.92 76.03 75.03
56.23 53.14 55.99 51.56 52.93 50.76 54.29 56.40 61.80 63.47 64.57 66.97 67.08 67.96 68.38 69.31 69.86 69.89 70.28 70.57 70.57 70.68 71.09 71.61 72.24 73.23 74.06 74.45 75.47 75.61 76.14 76.10 75.07 75.57 75.64 74.32 74.48 73.69 75.81 77.47 77.17 76.34 75.29 73.78 72.70 73.36 75.49 75.94 76.35
55.70 57.37 52.39 53.81 48.49 47.12 51.89 52.47 54.96 60.58 62.85 66.18 66.64 67.97 69.23 70.31 70.77 71.16 71.38 71.63 71.99 71.71 71.87 72.24 73.00 73.42 74.24 74.04 74.33 74.60 75.15 75.98 76.01 75.82 75.46 75.31 74.94 74.65 75.12 75.88 77.02 76.89 74.82 75.11 74.06 74.06 74.27 74.73 75.84
55.43 54.56 55.33 55.07 52.73 49.04 48.04 52.93 59.89 62.20 64.17 65.08 67.03 68.64 69.77 70.58 71.01 71.67 72.29 72.90 73.03 73.09 72.95 72.81 73.00 73.66 74.06 74.11 73.97 73.98 74.14 74.65 74.93 74.23 74.37 75.03 75.31 75.17 76.37 77.27 77.39 77.32 77.25 77.28 75.73 75.28 76.50 76.21 76.19
57.53 56.40 56.01 52.31 51.18 53.77 52.35 52.53 63.22 63.31 63.53 66.03 67.20 68.41 69.43 71.06 71.71 72.22 72.68 73.09 73.20 73.61 73.53 73.18 73.45 73.57 73.97 74.48 74.71 74.04 74.39 74.43 73.52 73.55 73.75 74.89 74.68 76.12 77.14 77.28 77.53 77.67 77.23 77.67 77.77 77.37 76.73 76.35 75.41
MSLP
1009.40 1008.83 1008.78 1008.66 1007.93 1006.15 1005.78 1006.00 1005.66 1006.15 1006.57 1007.07 1007.62 1007.87 1008.38 1008.91 1009.15 1009.92 1011.54 1012.05 1012.45 1012.86 1013.77 1014.65 1015.19 1015.39 1015.58 1015.71 1015.76 1015.84 1015.89 1016.07 1016.14 1016.14 1016.29 1016.45 1016.64 1016.71 1016.75 1016.74 1016.79 1016.98 1017.03 1017.14 1017.32 1017.42 1017.57 1017.69 1017.74
1008.31 1008.73 1008.44 1006.94 1006.05 1005.08 1005.79 1005.67 1005.87 1006.08 1006.72 1007.45 1008.09 1008.54 1008.99 1009.88 1010.45 1010.96 1011.55 1012.20 1012.63 1012.81 1013.42 1014.24 1015.36 1015.49 1015.64 1015.86 1015.98 1016.02 1016.07 1016.22 1016.35 1016.43 1016.48 1016.62 1016.81 1016.86 1017.07 1017.23 1017.17 1017.26 1017.36 1017.38 1017.58 1017.73 1017.89 1017.97 1018.07
1008.76 1008.68 1006.79 1005.53 1004.82 1004.69 1005.30 1005.87 1006.03 1006.69 1007.24 1007.59 1008.47 1009.78 1009.73 1011.14 1011.03 1011.13 1011.54 1012.26 1012.66 1013.07 1013.35 1014.52 1015.46 1015.62 1015.72 1015.90 1016.10 1016.24 1016.27 1016.43 1016.50 1016.75 1016.89 1016.96 1017.01 1017.18 1017.25 1017.42 1017.48 1017.60 1017.67 1017.73 1017.88 1018.00 1018.21 1018.41 1018.49
1008.34 1007.48 1006.53 1004.85 1004.42 1005.12 1005.19 1005.62 1006.30 1006.84 1007.40 1007.99 1008.43 1009.69 1011.01 1011.72 1010.99 1011.29 1012.02 1012.46 1012.85 1013.35 1013.40 1015.27 1015.63 1015.74 1015.89 1016.09 1016.22 1016.27 1016.46 1016.66 1016.80 1016.90 1017.11 1017.17 1017.30 1017.42 1017.55 1017.63 1017.79 1017.89 1018.02 1018.10 1018.24 1018.39 1018.57 1018.68 1018.92
1007.84 1006.49 1004.67 1004.08 1004.60 1005.33 1005.55 1005.97 1006.15 1006.54 1007.23 1007.90 1008.58 1009.89 1011.10 1011.46 1011.53 1011.89 1012.37 1012.53 1012.73 1013.14 1013.70 1014.89 1015.68 1015.88 1016.05 1016.19 1016.31 1016.49 1016.67 1016.71 1016.90 1017.03 1017.26 1017.47 1017.50 1017.67 1017.81 1017.87 1018.05 1018.19 1018.30 1018.39 1018.50 1018.67 1018.89 1019.13 1019.36
1006.70 1005.90 1004.07 1003.79 1004.77 1005.25 1005.67 1005.95 1006.12 1006.71 1007.44 1008.30 1008.87 1009.74 1010.93 1011.68 1011.82 1012.09 1012.43 1012.55 1012.81 1013.14 1013.38 1014.54 1015.76 1016.02 1016.14 1016.26 1016.43 1016.66 1016.78 1016.79 1016.99 1017.11 1017.41 1017.61 1017.88 1017.97 1018.22 1018.20 1018.31 1018.47 1018.73 1018.75 1018.85 1019.00 1019.24 1019.24 1019.46
1006.42 1004.58 1004.11 1003.74 1004.57 1005.25 1005.71 1005.95 1005.92 1006.46 1007.17 1007.59 1008.47 1009.54 1011.10 1011.57 1011.87 1012.22 1012.52 1012.87 1013.12 1013.20 1013.41 1014.06 1014.54 1015.62 1016.13 1016.28 1016.39 1016.68 1016.90 1016.98 1017.15 1017.46 1017.77 1017.78 1018.02 1018.26 1018.55 1018.65 1018.75 1018.77 1018.92 1019.03 1019.30 1019.36 1019.52 1019.52 1019.48
1006.19 1004.93 1003.92 1003.71 1004.11 1004.96 1005.63 1005.92 1006.33 1006.41 1007.04 1007.95 1008.31 1009.02 1010.82 1011.18 1011.99 1012.39 1012.89 1013.24 1013.68 1013.64 1013.99 1014.24 1014.52 1014.78 1015.82 1016.01 1016.38 1016.68 1017.01 1017.09 1017.41 1017.63 1017.85 1018.14 1018.45 1018.50 1018.67 1018.84 1019.08 1019.24 1019.23 1019.28 1019.44 1019.55 1019.75 1019.62 1019.64
1006.50 1004.23 1003.42 1003.83 1003.87 1004.85 1005.64 1005.92 1006.84 1007.01 1007.49 1007.80 1008.42 1008.58 1010.12 1011.69 1012.69 1012.83 1013.03 1013.74 1013.86 1013.86 1013.87 1013.81 1014.35 1014.64 1015.48 1016.07 1016.59 1016.84 1017.16 1017.33 1017.55 1017.87 1018.16 1018.46 1018.69 1018.79 1018.93 1019.02 1019.40 1019.42 1019.41 1019.51 1019.67 1019.72 1019.72 1019.73 1019.85
1005.65 1003.72 1004.07 1004.34 1004.26 1004.31 1005.17 1005.56 1006.54 1006.94 1007.33 1008.10 1008.54 1009.09 1010.67 1012.23 1012.46 1013.04 1013.12 1013.28 1013.48 1013.86 1014.07 1014.12 1014.15 1014.74 1015.17 1015.76 1016.52 1016.90 1017.12 1017.19 1017.53 1017.59 1018.24 1018.43 1018.62 1018.77 1019.16 1019.39 1019.59 1019.55 1019.56 1019.63 1019.83 1019.92 1019.95 1019.58 1019.24
1005.11 1004.27 1004.51 1004.47 1004.46 1004.40 1004.82 1005.49 1006.12 1006.64 1007.02 1007.72 1008.47 1009.53 1010.82 1012.02 1012.27 1013.08 1013.51 1013.03 1013.21 1013.85 1014.24 1014.63 1015.30 1015.23 1015.01 1015.92 1016.04 1016.15 1016.99 1016.79 1017.32 1017.83 1018.01 1018.36 1018.59 1018.76 1018.92 1019.59 1019.76 1019.67 1019.47 1019.47 1020.04 1020.46 1020.17 1020.01 1019.75
1004.87 1004.85 1004.71 1004.62 1004.73 1004.47 1004.88 1005.47 1006.07 1006.41 1007.01 1007.66 1008.76 1009.79 1010.60 1011.58 1011.85 1012.57 1013.02 1013.14 1013.62 1014.02 1014.54 1014.99 1015.43 1015.97 1015.79 1016.08 1016.04 1016.49 1016.26 1016.64 1016.75 1017.29 1017.94 1018.36 1018.45 1019.17 1019.31 1019.74 1019.77 1019.46 1019.59 1019.17 1019.39 1019.75 1020.16 1020.56 1020.04
1004.71 1004.56 1004.64 1004.73 1004.76 1004.60 1005.23 1005.68 1006.33 1007.27 1007.80 1008.31 1009.29 1010.22 1010.73 1011.09 1011.72 1012.74 1012.51 1013.19 1013.69 1014.19 1014.71 1015.22 1015.69 1016.21 1016.32 1016.53 1016.39 1016.38 1016.48 1016.50 1016.79 1017.33 1017.61 1017.43 1017.99 1019.04 1019.42 1019.64 1019.22 1019.05 1018.48 1018.75 1018.96 1019.24 1019.51 1019.75 1019.72
1004.58 1004.54 1004.34 1004.27 1004.64 1004.98 1005.41 1006.21 1006.58 1008.06 1008.60 1009.09 1010.08 1010.67 1011.15 1011.21 1011.82 1012.77 1012.59 1013.11 1013.62 1014.04 1014.57 1015.20 1015.64 1016.14 1016.23 1016.36 1016.77 1016.86 1016.54 1016.71 1017.02 1017.13 1017.37 1018.06 1018.35 1018.83 1019.25 1019.14 1018.83 1018.78 1018.46 1018.54 1019.15 1019.33 1019.24 1019.50 1019.57
1004.41 1003.73 1003.69 1003.91 1004.44 1004.80 1005.40 1006.11 1007.29 1008.36 1008.83 1009.65 1010.67 1011.09 1011.66 1011.69 1011.82 1012.39 1012.65 1013.07 1013.96 1014.08 1014.64 1015.20 1015.52 1015.86 1016.32 1016.51 1016.73 1016.62 1016.63 1016.79 1017.10 1017.58 1017.86 1017.96 1018.24 1018.60 1018.92 1019.13 1018.85 1018.15 1018.67 1019.13 1019.30 1019.41 1019.34 1019.19 1019.24
1003.32 1003.27 1002.72 1003.81 1004.23 1004.85 1005.12 1005.93 1007.58 1008.45 1008.93 1009.69 1010.82 1011.27 1011.41 1011.31 1011.73 1012.38 1012.98 1014.22 1014.05 1014.64 1014.83 1015.30 1015.35 1015.59 1016.15 1016.38 1016.66 1016.39 1016.53 1016.65 1016.91 1017.09 1017.64 1017.87 1018.11 1018.27 1018.42 1018.62 1018.81 1018.41 1018.75 1018.58 1018.65 1019.12 1018.95 1019.08 1019.19
1002.40 1001.66 1002.16 1003.25 1003.85 1004.39 1004.70 1005.77 1007.45 1008.24 1008.68 1009.32 1010.48 1010.69 1011.03 1011.27 1011.86 1012.54 1012.94 1014.31 1014.92 1015.08 1014.79 1015.02 1015.61 1015.65 1016.00 1016.52 1016.48 1016.67 1016.82 1017.32 1017.18 1017.05 1017.18 1017.57 1017.90 1018.14 1017.84 1017.87 1018.16 1018.75 1018.43 1018.56 1018.60 1019.02 1019.08 1019.27 1018.86
1001.91 1001.62 1001.89 1002.21 1003.21 1003.78 1004.32 1005.34 1006.95 1007.84 1008.31 1008.84 1009.49 1010.27 1010.56 1011.10 1011.86 1013.01 1013.97 1014.01 1014.78 1014.38 1014.78 1015.02 1015.50 1015.71 1016.34 1016.52 1016.75 1016.41 1016.57 1016.68 1016.74 1017.44 1017.48 1017.61 1017.63 1018.04 1017.97 1017.76 1018.06 1018.42 1018.37 1018.29 1018.39 1019.08 1019.35 1019.08 1018.75
1002.16 1001.84 1001.69 1002.07 1002.80 1003.21 1003.74 1004.80 1006.28 1007.27 1007.86 1008.44 1008.75 1009.38 1009.98 1010.51 1011.31 1012.83 1013.48 1013.09 1013.82 1014.11 1014.49 1015.02 1015.39 1015.75 1016.19 1016.43 1016.48 1016.31 1016.27 1016.35 1016.60 1016.76 1017.31 1017.49 1017.33 1017.68 1017.90 1017.69 1018.10 1018.21 1018.42 1018.48 1018.83 1018.82 1019.05 1019.27 1019.11
1001.84 1001.45 1001.23 1001.90 1002.52 1002.90 1003.44 1004.16 1005.64 1006.63 1007.17 1007.81 1008.28 1008.72 1009.16 1009.98 1011.22 1011.97 1012.54 1012.55 1012.97 1013.58 1014.24 1014.92 1015.26 1015.67 1016.13 1016.16 1016.33 1016.34 1016.41 1016.41 1016.41 1016.46 1017.00 1017.13 1017.34 1017.51 1017.40 1017.54 1017.76 1018.01 1018.19 1018.71 1018.99 1018.90 1018.59 1019.53 1019.91
1000.61 1000.33 1000.75 1001.07 1002.13 1002.41 1002.81 1003.39 1004.80 1005.89 1006.55 1007.14 1007.76 1008.22 1008.57 1009.09 1010.07 1010.70 1011.43 1011.84 1012.47 1013.16 1013.93 1014.57 1015.12 1015.46 1015.90 1016.08 1016.32 1016.81 1016.82 1016.80 1016.57 1016.53 1016.83 1016.96 1017.08 1017.20 1017.23 1017.32 1017.52 1017.85 1018.15 1018.54 1018.76 1018.73 1019.10 1019.72 1020.24
999.58 1000.79 1000.77 1000.91 1000.93 1000.21 1001.79 1000.81 1002.90 1004.22 1005.41 1006.23 1006.72 1007.40 1007.93 1008.54 1009.28 1009.81 1010.55 1011.17 1011.78 1012.54 1013.51 1014.22 1014.82 1015.32 1015.78 1016.18 1016.14 1016.43 1016.31 1016.17 1016.07 1016.32 1016.41 1016.80 1017.01 1016.98 1017.29 1017.47 1017.55 1017.63 1017.93 1018.29 1018.65 1018.60 1018.89 1019.44 1019.81
1000.71 1000.93 1000.43 1000.21 999.90 1000.14 1000.71 1000.77 1001.33 1002.67 1003.76 1004.57 1005.45 1006.24 1007.14 1008.05 1008.64 1008.98 1009.69 1010.37 1011.05 1012.32 1012.83 1013.52 1014.36 1015.07 1015.51 1015.85 1016.30 1016.34 1016.53 1016.00 1016.06 1016.27 1016.72 1016.81 1016.74 1016.68 1016.93 1017.19 1017.32 1017.52 1018.36 1018.44 1018.56 1018.58 1018.93 1019.17 1019.28
1000.84 1000.38 1000.05 999.78 999.19 998.32 999.33 999.76 999.16 1000.83 1001.56 1002.83 1004.10 1005.03 1006.12 1007.00 1007.96 1008.52 1009.22 1009.82 1010.53 1011.48 1012.96 1013.82 1013.91 1014.61 1015.14 1015.66 1016.14 1016.42 1016.39 1016.32 1016.11 1016.39 1016.26 1016.17 1016.18 1016.45 1016.79 1017.13 1017.17 1017.72 1018.45 1018.15 1018.36 1018.62 1019.03 1019.33 1019.49
1000.08 999.07 997.92 997.68 997.43 997.40 998.97 999.19 998.50 999.80 1000.47 1001.24 1002.56 1003.88 1005.09 1006.14 1007.16 1007.84 1008.35 1009.06 1009.84 1010.48 1011.47 1012.38 1013.46 1014.05 1014.67 1015.19 1015.59 1015.91 1016.24 1016.48 1016.54 1016.67 1016.07 1016.16 1015.75 1016.10 1016.48 1016.85 1017.14 1017.12 1017.27 1017.46 1017.72 1018.31 1018.60 1019.11 1019.04
998.94 997.83 997.28 996.99 996.60 996.81 998.53 997.70 998.59 999.64 1000.15 1000.76 1001.88 1003.05 1004.16 1005.11 1005.95 1006.98 1007.77 1008.52 1009.28 1010.07 1010.78 1011.59 1012.37 1013.27 1013.89 1014.49 1014.94 1015.46 1015.83 1015.96 1015.95 1015.95 1016.06 1015.99 1015.70 1015.70 1016.23 1016.43 1016.66 1017.11 1017.33 1017.54 1017.69 1017.98 1018.02 1018.04 1018.35
998.27 998.27 997.66 996.85 997.27 997.00 996.82 997.20 999.11 999.88 1000.36 1000.87 1001.41 1002.44 1003.57 1004.45 1005.17 1006.07 1006.95 1007.91 1008.67 1009.45 1010.33 1011.06 1011.96 1012.66 1013.41 1013.75 1014.31 1014.74 1015.19 1015.50 1015.33 1015.70 1015.93 1015.73 1015.78 1015.83 1016.16 1016.24 1016.51 1016.78 1017.09 1017.17 1017.45 1017.47 1017.39 1017.52 1017.42
998.38 998.08 997.19 996.62 996.33 996.33 996.08 997.06 997.32 999.33 1000.13 1000.94 1001.31 1002.11 1003.14 1004.01 1004.81 1005.49 1006.23 1007.05 1007.94 1008.78 1009.73 1010.59 1011.33 1012.00 1012.67 1012.99 1013.40 1013.87 1014.25 1014.76 1015.00 1015.35 1015.53 1015.54 1015.58 1015.76 1015.93 1015.88 1016.07 1016.50 1016.87 1016.79 1017.02 1017.16 1017.29 1017.29 1017.00
997.64 997.19 996.91 996.48 996.67 996.14 996.00 996.08 997.49 998.94 999.75 1000.58 1001.51 1002.08 1002.67 1003.52 1004.15 1005.02 1005.71 1006.60 1007.56 1008.27 1008.93 1009.68 1010.48 1011.16 1011.77 1012.23 1012.55 1013.12 1013.46 1013.93 1014.52 1014.76 1014.97 1015.25 1015.36 1015.57 1015.76 1015.65 1015.59 1015.71 1015.93 1016.18 1016.46 1016.60 1016.40 1016.45 1016.31
997.15 996.31 996.30 995.60 995.78 996.38 996.90 997.00 998.57 999.34 999.71 1000.35 1001.08 1001.83 1002.43 1003.04 1003.70 1004.58 1005.42 1006.25 1007.03 1007.79 1008.32 1008.91 1009.60 1010.29 1010.80 1011.26 1012.08 1012.53 1013.19 1013.60 1013.68 1014.14 1014.41 1014.71 1014.94 1015.25 1015.39 1015.42 1015.31 1015.33 1015.50 1015.72 1015.68 1015.68 1015.43 1015.77 1015.91
Wind_Speed
12 11 3 4 6 4 7 7 13 16 15 6 14 4 8 10 7 7 15 11 18 15 15 13 9 11 10 8 9 9 10 9 8 6 8 9 11 11 12 13 14 14 15 18 16 16 16 15 16
6 4 5 3 4 7 7 12 14 9 11 17 10 9 3 7 6 13 15 16 17 15 15 14 11 10 11 8 9 9 9 9 8 9 7 10 11 12 13 13 14 15 14 16 16 14 15 15 14
5 5 5 4 1 5 9 9 13 14 19 11 6 8 2 4 7 17 17 20 16 13 12 15 11 10 9 8 9 9 8 8 6 7 7 9 10 12 13 13 15 15 14 14 15 13 14 13 13
5 5 4 4 9 11 12 13 16 15 14 4 9 8 6 3 17 10 20 18 15 14 11 14 11 10 8 6 8 9 9 8 7 7 8 9 10 10 12 13 14 14 14 13 14 13 13 12 12
4 5 3 3 10 13 9 13 12 13 11 10 4 7 9 11 9 19 18 16 15 13 13 14 9 8 7 7 7 8 9 9 8 7 7 10 10 11 12 12 11 12 13 13 14 13 12 13 11
5 5 3 7 11 12 10 9 8 9 11 10 11 12 7 11 17 18 17 15 13 12 12 14 9 6 4 5 7 8 9 9 8 8 9 10 10 10 10 10 11 11 12 13 12 11 10 9 8
5 2 6 11 12 11 11 8 7 8 10 8 13 8 9 16 17 17 15 13 12 11 10 9 12 8 5 3 4 9 11 10 8 9 9 10 9 10 9 9 9 11 12 12 11 10 7 6 4
6 4 5 6 10 10 10 7 7 6 7 12 11 8 11 19 18 15 13 13 10 9 10 7 5 8 6 5 8 11 11 10 11 13 14 14 11 8 11 13 6 7 11 11 10 9 6 5 7
3 5 7 7 8 8 12 9 6 4 12 3 3 10 19 21 13 15 14 11 10 8 9 9 9 7 10 9 11 12 12 12 14 13 16 13 6 5 8 12 9 1 8 10 9 7 7 9 12
5 3 7 5 5 6 11 8 10 9 12 8 10 14 22 23 20 17 15 14 14 11 9 7 8 9 11 8 9 9 8 7 7 8 8 6 8 8 6 10 6 3 8 10 8 8 6 3 5
2 6 4 5 6 5 11 8 7 11 9 11 16 21 24 22 19 17 11 14 13 12 8 9 7 6 7 8 8 6 6 6 7 8 6 8 4 4 6 4 2 1 7 6 6 3 4 2 3
3 2 1 4 4 6 9 9 3 4 9 10 15 22 23 24 20 17 16 14 13 11 10 10 9 7 6 5 4 4 5 5 5 7 9 7 6 4 4 3 4 6 4 5 6 5 6 3 4
4 5 1 4 3 7 8 5 8 5 3 11 17 19 22 21 18 13 15 14 13 13 12 10 9 8 7 5 4 5 4 4 5 7 6 5 7 6 5 4 6 4 4 5 5 5 4 4 5
7 4 2 6 8 9 10 8 3 7 7 14 18 18 17 19 19 15 13 13 13 12 13 12 11 9 8 5 5 4 3 4 3 3 5 5 4 6 4 5 7 7 4 4 3 3 4 4 4
4 4 8 9 12 9 12 8 9 9 10 14 16 15 18 17 18 17 15 14 10 12 13 13 11 11 8 6 5 3 4 4 2 2 3 5 4 5 6 4 6 5 3 4 4 5 4 5 5
5 5 6 9 8 7 8 8 9 10 11 14 15 17 18 18 18 15 13 12 12 4 13 12 9 10 9 6 5 3 3 2 2 2 6 5 3 4 7 5 4 2 4 4 3 2 4 4 4
5 4 4 8 7 7 9 8 10 10 9 11 15 17 15 16 15 14 14 9 10 13 13 13 10 10 9 6 4 4 2 4 2 0 4 6 5 5 2 4 4 5 4 4 4 1 2 3 5
6 3 2 2 9 8 6 7 13 12 10 10 16 17 16 18 17 14 8 16 13 13 13 11 10 9 6 4 4 4 3 3 2 2 1 4 4 4 4 3 3 6 4 4 4 3 3 5 4
8 7 4 4 3 7 7 10 13 13 11 11 14 16 17 17 18 11 15 14 16 16 14 13 12 10 8 7 5 4 5 3 3 3 2 4 6 6 5 4 6 6 3 4 4 5 5 2 1
6 5 4 4 3 8 5 8 12 13 13 13 14 16 17 19 16 18 18 16 17 16 14 14 14 12 9 6 5 4 2 3 3 2 3 3 5 7 5 3 4 5 5 5 4 6 5 3 3
9 5 6 4 9 4 6 10 13 13 12 13 14 15 17 18 21 20 19 19 17 16 15 15 14 13 11 9 6 3 3 3 4 4 3 3 4 5 5 4 2 4 4 4 6 6 6 2 3
11 5 3 9 11 1 11 3 16 17 16 15 15 16 16 19 19 18 19 20 18 16 15 15 15 13 11 9 7 7 5 4 2 3 2 3 3 2 4 5 4 4 3 3 4 5 4 5 4
6 2 5 7 8 4 12 8 11 15 15 17 17 17 17 18 19 20 19 19 18 15 14 15 14 13 12 10 10 7 8 5 4 2 2 4 3 3 3 4 4 4 1 4 4 3 4 4 6
4 6 6 5 6 7 7 6 10 11 17 18 18 18 18 18 19 18 19 19 17 17 14 14 15 14 12 11 11 12 11 8 5 3 4 4 4 2 1 2 4 4 4 4 1 1 2 4 5
12 13 4 5 6 7 3 6 7 9 5 18 20 19 18 18 19 19 20 19 18 19 18 17 13 15 13 12 12 12 12 10 8 6 5 5 4 3 3 3 5 5 3 3 1 4 6 8 9
13 9 8 4 2 7 4 3 8 6 8 12 19 19 19 19 18 19 19 18 18 19 18 18 17 16 15 14 13 11 11 8 9 9 6 6 5 3 2 3 4 6 5 6 6 5 9 9 9
9 9 6 7 4 9 5 3 11 7 8 12 20 20 19 19 18 19 19 18 17 18 18 17 15 14 15 16 13 13 11 11 9 7 7 7 6 6 6 5 5 6 8 8 6 6 7 8 9
9 4 8 7 3 5 5 4 5 7 12 13 18 20 19 19 18 16 16 17 16 17 17 17 17 17 16 16 15 13 13 12 12 11 11 10 9 7 8 8 7 8 9 9 9 8 8 9 9
7 10 7 8 6 11 8 3 11 7 10 16 16 17 18 18 18 16 15 15 15 14 15 16 17 17 16 15 14 14 12 13 12 11 11 10 10 7 8 8 8 9 9 11 9 9 8 10 11
9 10 9 6 3 3 8 6 7 4 6 11 15 16 17 17 17 16 15 14 14 14 14 14 14 14 14 13 12 13 12 10 11 11 11 10 9 8 9 9 9 9 10 9 12 11 10 12 12
Wind_Direction
183 197 213 216 226 215 88 83 107 112 122 127 131 162 92 18 349 54 136 144 137 144 135 154 139 140 143 137 132 127 125 126 149 128 121 111 107 105 103 110 106 106 107 106 101 99 95 90 92
169 173 218 240 251 142 89 115 114 114 121 129 118 114 107 78 67 126 135 150 145 142 146 145 147 151 150 150 136 136 130 126 139 135 130 112 112 111 107 109 106 110 110 110 106 105 99 97 94
200 248 254 267 237 75 110 128 112 112 135 128 112 76 11 60 130 144 130 144 150 143 146 114 150 150 151 144 148 147 141 128 117 122 132 127 117 116 112 112 115 114 113 109 111 110 102 95 94
223 205 208 251 101 76 113 127 126 129 150 104 127 84 90 217 139 138 144 147 148 146 143 129 151 152 152 158 173 165 151 138 124 127 138 131 126 117 117 116 111 120 120 119 114 109 103 101 104
219 250 210 117 92 106 112 125 144 143 147 150 171 95 110 134 126 139 146 155 148 149 129 145 150 149 154 168 168 162 152 147 143 128 139 132 133 123 117 121 118 118 119 118 121 121 119 112 99
242 272 118 95 94 117 125 140 133 130 134 133 122 114 104 133 149 150 153 153 145 144 151 128 135 149 147 187 181 161 162 154 152 134 138 125 132 120 116 121 112 118 114 113 117 116 114 118 120
297 285 60 85 109 111 137 135 139 136 155 149 140 102 125 150 151 153 154 143 141 145 129 140 146 138 154 187 191 152 153 151 146 120 111 115 111 108 109 110 117 122 121 120 113 113 106 110 130
289 277 138 93 87 102 132 155 101 138 96 115 153 147 168 152 156 140 160 135 151 148 139 128 110 106 84 102 144 148 141 126 113 116 117 102 99 100 91 61 66 127 133 126 125 115 108 99 106
305 230 85 80 72 124 145 128 78 72 135 132 121 141 153 138 153 163 148 152 156 166 147 148 147 135 98 100 118 126 120 119 121 125 127 129 131 110 95 76 21 148 137 132 131 121 100 107 108
273 18 51 44 70 116 160 141 138 154 150 127 124 117 141 153 167 151 172 162 159 158 158 126 133 123 119 112 109 111 107 118 108 133 128 132 153 144 119 130 177 280 142 133 126 105 102 196 110
343 40 61 85 21 163 154 141 144 144 176 159 145 145 153 154 162 166 188 168 154 159 146 136 110 128 127 116 156 138 151 144 133 138 156 132 133 144 147 145 181 238 173 138 115 67 83 20 78
255 38 7 100 54 132 148 130 129 163 48 148 149 155 158 167 168 172 181 169 151 156 152 135 135 134 108 131 127 140 124 135 157 138 153 142 152 153 136 140 165 178 178 174 155 156 145 143 134
300 42 188 156 125 114 127 126 93 70 53 138 145 160 167 174 160 175 175 161 160 162 152 151 141 149 139 168 129 149 126 161 117 162 157 173 144 162 150 170 174 189 191 162 174 156 152 161 150
352 313 268 191 162 134 129 124 190 84 126 140 149 170 168 179 166 173 167 166 169 163 155 147 156 153 149 147 153 155 161 122 176 147 138 179 151 149 157 183 186 183 197 141 138 160 164 185 184
287 152 129 109 155 152 140 104 91 115 131 136 166 161 168 191 171 176 173 170 163 179 156 152 160 163 166 167 182 198 160 178 151 205 163 165 201 165 152 171 231 163 156 167 173 191 192 214 203
216 219 168 136 154 149 244 104 131 140 142 151 161 172 179 177 175 173 167 178 185 170 163 164 170 171 167 161 185 217 185 216 241 167 195 163 153 177 158 156 199 143 179 218 209 213 210 215 213
204 102 108 155 193 162 234 119 152 160 154 157 164 178 177 174 177 180 181 149 173 200 170 174 177 181 169 166 211 222 220 268 271 289 212 148 163 160 167 188 153 182 191 201 226 239 221 215 199
329 340 119 151 165 206 180 112 160 169 161 172 171 178 185 177 185 184 191 196 183 195 185 187 178 183 186 183 220 226 218 242 275 60 358 166 137 157 198 174 176 207 197 217 216 210 240 242 159
304 280 252 175 159 204 204 148 169 173 171 171 182 178 184 192 182 184 191 195 195 197 188 187 193 196 197 194 208 201 229 209 249 188 169 187 162 174 185 174 175 216 199 250 209 221 205 282 167
277 242 211 130 180 235 166 157 165 181 184 179 189 188 189 179 202 190 204 207 196 190 189 194 207 199 203 200 215 240 243 254 289 277 159 201 197 188 188 187 178 201 184 223 268 241 249 123 351
113 6 156 123 156 217 182 177 183 184 194 183 190 196 197 193 188 190 198 198 192 188 189 196 202 203 207 219 205 210 256 246 237 217 170 228 225 220 201 198 206 177 237 187 219 229 242 152 169
82 11 186 157 199 131 213 39 189 186 196 195 192 193 197 199 201 194 193 193 198 191 190 199 207 211 210 210 225 225 255 265 44 248 228 223 233 224 190 223 208 210 242 219 217 215 250 213 211
33 195 190 194 228 232 177 256 98 179 197 197 199 190 195 194 200 199 198 198 197 201 192 202 203 213 222 209 237 232 236 253 233 221 231 252 255 244 245 199 195 214 197 301 254 231 230 224 255
162 161 159 194 262 230 58 275 154 176 216 195 186 188 189 192 197 203 199 200 200 197 173 209 204 209 215 215 213 231 258 263 270 238 266 247 243 200 163 190 153 177 187 224 245 298 275 270 227
222 221 177 222 200 44 77 241 26 181 185 184 180 183 184 188 189 199 201 204 202 202 198 203 201 216 216 218 225 227 236 246 255 255 251 321 269 151 197 190 183 173 163 170 177 207 219 234 253
214 276 306 247 284 64 142 291 88 75 153 174 171 179 179 184 188 195 198 200 203 208 208 208 205 213 217 220 219 223 229 227 229 225 274 284 298 286 122 225 171 179 182 181 186 203 230 224 231
154 231 342 283 194 258 76 136 130 155 147 184 172 174 179 186 190 190 192 197 200 200 210 211 209 208 215 213 214 213 214 225 246 246 251 259 263 263 221 230 208 195 209 220 228 245 237 251 240
274 358 216 209 236 291 98 285 63 151 170 174 176 179 181 185 187 187 192 191 195 199 203 206 206 210 210 213 209 215 215 215 221 230 241 258 268 259 258 237 221 202 226 235 229 227 231 245 247
166 216 229 308 294 310 285 38 63 109 173 178 178 189 185 187 189 190 189 187 193 199 199 205 206 210 209 212 216 214 218 219 224 238 242 248 243 234 245 244 238 229 220 225 236 244 240 223 236
291 301 284 268 197 252 312 321 94 87 166 172 182 185 191 189 187 184 188 190 193 202 202 203 203 209 211 210 207 212 216 230 236 231 241 237 236 221 233 241 239 231 231 238 227 230 225 227 235